Regional Weather Roundup
Issued by NWS

Home | Current Version | Previous Version | Text Only | Print | Product List | Glossary Off
Versions: 1 2 3 4 5 6 7 8 9 10 11 12 13 14 15 16 17 18 19 20 21 22 23 24 25 26 27 28 29 30 31 32 33 34 35 36 37 38 39 40 41 42 43 44 45 46 47 48 49 50

000
ASUS45 KPSR 021300
RWRAZ

ARIZONA HOURLY REGIONAL WEATHER ROUNDUP
NATIONAL WEATHER SERVICE PHOENIX AZ
600 AM MST THU JUL 02 2015

NOTE: FAIR INDICATES FEW OR NO CLOUDS BELOW 12,000 FEET WITH NO
SIGNIFICANT WEATHER AND/OR OBSTRUCTIONS TO VISIBILITY.

AZZ001>003-036-021400-
NORTHWEST ARIZONA

CITY           SKY/WX    TMP DP  RH WIND       PRES   REMARKS
KINGMAN        CLOUDY    72  65  78 CALM      30.07R
$$

AZZ004>008-015-016-018-021400-
NORTH CENTRAL ARIZONA

CITY           SKY/WX    TMP DP  RH WIND       PRES   REMARKS
GRAND CANYON   PTCLDY    59  57  93 CALM      30.29S
WILLIAMS       PTCLDY    59  55  88 SE3       30.36S
PRESCOTT       CLEAR     69  60  73 SE8       30.17R
FLAGSTAFF      NOT AVBL
PAYSON         CLEAR     68  55  64 CALM      30.19S
PAGE           CLOUDY    80  54  40 S9        30.09R
$$

AZZ009>014-017-021400-
NORTHEAST ARIZONA

CITY           SKY/WX    TMP DP  RH WIND       PRES   REMARKS
WINSLOW        NOT AVBL
SAINT JOHNS    MOCLDY    61  58  90 SW3       30.21R
WINDOW ROCK    MOCLDY    62  52  69 NW3       30.29R
SHOW LOW       PTCLDY    57  50  77 S3        30.27S
$$

AZZ023-021400-
GREATER PHOENIX AREA

CITY           SKY/WX    TMP DP  RH WIND       PRES   REMARKS
PHOENIX        MOCLDY    88  58  36 W13       29.89R
GLENDALE       MOCLDY    86  57  37 S8        29.91
LUKE AFB       CLEAR     86  59  39 S12       29.89R
DEER VALLEY    CLEAR     83  58  42 CALM      29.91S
SCOTTSDALE     CLEAR     84  58  40 CALM      29.94R
MESA-GATEWAY   MOCLDY    82  61  47 SW3       29.94R
CHANDLER       MOCLDY    81  61  50 VRB5      29.91
$$

AZZ027-028-021400-
SOUTHWEST MARICOPA COUNTY AND PINAL COUNTY

CITY           SKY/WX    TMP DP  RH WIND       PRES   REMARKS
CASA GRANDE    CLEAR     79  61  53 CALM      29.93R
GILA BEND      FAIR      79  62  54 S6        29.90R
$$

AZZ503-504-507>509-021400-
SOUTHEAST ARIZONA

CITY           SKY/WX    TMP DP  RH WIND       PRES   REMARKS
TUCSON         CLEAR     74  65  73 S7        30.03S
DAVIS-MONTHAN  CLEAR     73  66  78 S3        30.02R
RYAN FIELD     CLEAR     72  66  83 CALM      30.03
NOGALES        CLEAR     64  60  87 CALM      30.10S
SIERRA VISTA   CLEAR     70  60  70 W12       30.16R
SAFFORD        CLEAR     78  59  51 NW8       29.99R
$$

AZZ020-021-025-026-031-021400-
SOUTHWEST ARIZONA

CITY           SKY/WX    TMP DP  RH WIND       PRES   REMARKS
YUMA           PTCLDY    81  65  58 S3        29.88R
$$

CAZ031-033-041-043-047-048-061-021400-
SOUTHERN CALIFORNIA

CITY           SKY/WX    TMP DP  RH WIND       PRES   REMARKS
DOWNTOWN L.A.  MOCLDY    69  62  78 CALM      29.95R
L.A. AIRPORT   CLOUDY    66  62  87 W8        29.97R
SAN DIEGO      CLOUDY    72  65  78 NW3       29.98R FOG
BURBANK        MOCLDY    72  60  66 CALM      29.96S
ONTARIO        MOCLDY    71  60  68 CALM      29.96F
RIVERSIDE      PTCLDY    72  61  68 CALM      29.97S
PALM SPRINGS   MOCLDY    84  63  49 CALM      29.90R
EL CENTRO NAS  PTCLDY    77  66  68 E5        29.86R
IMPERIAL       CLEAR     79  70  74 SE3       29.84R
BLYTHE         PTCLDY    79  69  71 CALM      29.88R
$$

NVZ020-UTZ003-021400-
SOUTHERN NEVADA-UTAH

CITY           SKY/WX    TMP DP  RH WIND       PRES   REMARKS
LAS VEGAS      NOT AVBL
SALT LAKE CITY MOCLDY    77  51  40 S7        30.04R
$$

NMZ009-TXZ055-021400-
NEW MEXICO-WEST TEXAS

CITY           SKY/WX    TMP DP  RH WIND       PRES   REMARKS
ALBUQUERQUE    PTSUNNY   73  54  51 N10       30.16R
EL PASO        PTCLDY    75  54  47 S5        29.99S
$$


........................KEY........................
SKY/WX - SKY CONDITION/WEATHER
TMP    - TEMPERATURE IN FAHRENHEIT
DP     - DEW POINT IN FAHRENHEIT
RH     - RELATIVE HUMIDITY IN PERCENT
WIND   - DIRECTION AND SPEED IN MILES PER HOUR (MPH)
VRB    - VARIABLE WIND DIRECTION
PRES   - MEAN SEA LEVEL PRESSURE IN INCHES OF MERCURY
         F - FALLING PRESSURE   R - RISING PRESSURE
         S - STEADY PRESSURE
VSB    - VISIBILITY IN MILES
HX     - HEAT INDEX IN FAHRENHEIT
WCI    - WIND CHILL INDEX IN FAHRENHEIT
TC     - TEMPERATURE IN CELSIUS WHICH IS ALSO KNOWN AS
         TEMPERATURE IN CENTIGRADE
AFB    - AIR FORCE BASE
         LUKE AFB IS LUKE AIR FORCE BASE
         DAVIS-MONTHAN IS DAVIS-MONTHAN AIR FORCE BASE
NAS    - NAVAL AIR STATION
         EL CENTRO NAS IS EL CENTRO NAVAL AIR STATION
N/A    - NOT AVAILABLE




USA.gov is the U.S. government's official web portal to all federal, state and local government web resources and services.